QPF
0.00 0.00 0.00 0.00 0.00 0.00 0.00 0.00 0.00 0.00 0.00 0.00 0.00 0.00 0.00 0.00 0.00 0.00 0.01 0.00 0.00 0.00 0.00 0.00 0.01 0.01 0.01 0.00 0.01 0.01 0.00 0.00 0.00 0.01 0.02 0.03 0.02 0.01 0.03 0.03 0.05 0.10 0.19 0.03 0.00 0.02 0.01 0.00 0.00
0.00 0.00 0.00 0.00 0.00 0.00 0.00 0.00 0.00 0.00 0.00 0.00 0.00 0.00 0.00 0.00 0.00 0.00 0.00 0.00 0.00 0.00 0.02 0.00 0.00 0.00 0.00 0.00 0.01 0.01 0.00 0.01 0.01 0.00 0.01 0.01 0.01 0.01 0.01 0.02 0.02 0.03 0.26 0.26 0.15 0.05 0.01 0.00 0.00
0.00 0.00 0.00 0.00 0.00 0.00 0.00 0.00 0.00 0.00 0.00 0.00 0.00 0.00 0.00 0.00 0.00 0.00 0.00 0.00 0.00 0.00 0.01 0.01 0.00 0.00 0.00 0.00 0.01 0.01 0.02 0.03 0.04 0.03 0.01 0.00 0.01 0.02 0.03 0.02 0.03 0.11 0.16 0.16 0.14 0.13 0.03 0.00 0.00
0.00 0.00 0.00 0.00 0.00 0.00 0.00 0.00 0.00 0.00 0.00 0.00 0.00 0.00 0.00 0.00 0.00 0.00 0.00 0.00 0.01 0.01 0.00 0.00 0.01 0.01 0.00 0.00 0.01 0.02 0.04 0.05 0.04 0.05 0.06 0.05 0.01 0.02 0.03 0.02 0.01 0.06 0.09 0.12 0.06 0.01 0.00 0.00 0.00
0.00 0.00 0.00 0.00 0.00 0.00 0.00 0.00 0.00 0.00 0.00 0.00 0.00 0.00 0.00 0.00 0.00 0.00 0.01 0.01 0.00 0.01 0.00 0.00 0.01 0.04 0.06 0.02 0.03 0.05 0.04 0.06 0.05 0.04 0.06 0.06 0.01 0.00 0.01 0.01 0.01 0.02 0.01 0.00 0.00 0.00 0.00 0.00 0.00
0.00 0.00 0.00 0.00 0.00 0.00 0.00 0.00 0.00 0.00 0.00 0.00 0.00 0.00 0.00 0.00 0.00 0.00 0.03 0.03 0.01 0.01 0.02 0.02 0.00 0.02 0.05 0.06 0.06 0.08 0.09 0.07 0.06 0.03 0.04 0.02 0.00 0.00 0.00 0.00 0.00 0.00 0.00 0.00 0.00 0.00 0.00 0.00 0.00
0.00 0.00 0.00 0.00 0.00 0.00 0.00 0.00 0.00 0.00 0.00 0.00 0.00 0.00 0.00 0.00 0.00 0.00 0.02 0.03 0.02 0.00 0.00 0.02 0.03 0.03 0.10 0.06 0.06 0.12 0.18 0.11 0.06 0.02 0.01 0.00 0.00 0.00 0.00 0.00 0.00 0.00 0.00 0.00 0.00 0.00 0.00 0.00 0.00
0.00 0.00 0.00 0.00 0.00 0.00 0.00 0.00 0.00 0.00 0.00 0.00 0.00 0.00 0.00 0.00 0.00 0.00 0.01 0.00 0.01 0.00 0.01 0.07 0.10 0.13 0.13 0.05 0.08 0.17 0.18 0.13 0.05 0.00 0.00 0.01 0.01 0.00 0.00 0.00 0.00 0.00 0.00 0.00 0.00 0.00 0.00 0.00 0.00
0.00 0.00 0.00 0.00 0.00 0.00 0.00 0.00 0.00 0.00 0.00 0.00 0.00 0.00 0.00 0.00 0.00 0.02 0.01 0.00 0.04 0.05 0.11 0.12 0.18 0.25 0.27 0.31 0.33 0.38 0.44 0.45 0.26 0.05 0.02 0.03 0.00 0.00 0.00 0.00 0.00 0.00 0.00 0.00 0.00 0.00 0.00 0.00 0.00
0.00 0.00 0.00 0.00 0.00 0.00 0.00 0.00 0.00 0.00 0.00 0.00 0.00 0.00 0.00 0.00 0.00 0.01 0.03 0.02 0.01 0.04 0.07 0.13 0.08 0.09 0.23 0.31 0.20 0.25 0.39 0.45 0.32 0.18 0.09 0.03 0.00 0.00 0.00 0.00 0.00 0.00 0.00 0.00 0.00 0.00 0.00 0.00 0.00
0.00 0.00 0.00 0.00 0.00 0.00 0.00 0.00 0.00 0.00 0.00 0.00 0.00 0.00 0.00 0.00 0.00 0.00 0.00 0.00 0.00 0.01 0.02 0.08 0.00 0.01 0.12 0.16 0.17 0.21 0.31 0.29 0.23 0.22 0.07 0.02 0.00 0.00 0.00 0.00 0.00 0.00 0.00 0.00 0.00 0.00 0.00 0.00 0.00
0.00 0.00 0.00 0.00 0.00 0.00 0.00 0.00 0.00 0.00 0.00 0.00 0.00 0.00 0.00 0.00 0.00 0.00 0.00 0.00 0.00 0.00 0.01 0.02 0.02 0.04 0.02 0.00 0.01 0.04 0.08 0.08 0.09 0.11 0.09 0.04 0.01 0.00 0.00 0.00 0.00 0.00 0.00 0.00 0.00 0.00 0.00 0.00 0.00
0.00 0.00 0.00 0.00 0.00 0.00 0.00 0.00 0.00 0.00 0.00 0.00 0.00 0.00 0.00 0.00 0.00 0.00 0.00 0.00 0.00 0.00 0.00 0.00 0.04 0.03 0.06 0.02 0.00 0.00 0.01 0.00 0.01 0.02 0.04 0.04 0.02 0.01 0.00 0.00 0.00 0.00 0.00 0.00 0.00 0.00 0.00 0.00 0.00
0.00 0.00 0.00 0.00 0.00 0.00 0.00 0.00 0.00 0.00 0.00 0.00 0.00 0.00 0.00 0.00 0.00 0.00 0.00 0.00 0.00 0.00 0.00 0.00 0.01 0.02 0.04 0.04 0.00 0.01 0.01 0.00 0.00 0.00 0.01 0.05 0.03 0.01 0.00 0.00 0.00 0.00 0.00 0.00 0.00 0.00 0.00 0.00 0.00
0.00 0.00 0.00 0.00 0.00 0.00 0.00 0.00 0.00 0.00 0.00 0.00 0.00 0.00 0.00 0.00 0.00 0.00 0.00 0.00 0.00 0.00 0.00 0.00 0.00 0.01 0.10 0.06 0.00 0.02 0.02 0.03 0.02 0.04 0.04 0.04 0.06 0.04 0.01 0.00 0.00 0.00 0.00 0.00 0.00 0.00 0.00 0.00 0.00
0.00 0.00 0.00 0.00 0.00 0.00 0.00 0.00 0.00 0.00 0.00 0.00 0.00 0.00 0.00 0.00 0.00 0.00 0.00 0.00 0.00 0.00 0.00 0.00 0.00 0.03 0.06 0.10 0.04 0.01 0.02 0.09 0.12 0.09 0.02 0.02 0.04 0.03 0.03 0.02 0.01 0.00 0.00 0.00 0.00 0.00 0.00 0.00 0.00
0.00 0.00 0.00 0.00 0.00 0.00 0.00 0.00 0.00 0.00 0.00 0.00 0.00 0.00 0.00 0.00 0.00 0.00 0.00 0.00 0.00 0.00 0.00 0.00 0.00 0.00 0.02 0.05 0.14 0.07 0.08 0.01 0.04 0.08 0.05 0.03 0.03 0.01 0.01 0.00 0.01 0.00 0.00 0.00 0.00 0.00 0.00 0.00 0.00
0.00 0.00 0.00 0.00 0.00 0.00 0.00 0.00 0.00 0.00 0.00 0.00 0.00 0.00 0.00 0.00 0.00 0.00 0.00 0.00 0.00 0.00 0.00 0.00 0.00 0.00 0.01 0.00 0.03 0.03 0.05 0.04 0.04 0.04 0.05 0.03 0.02 0.02 0.01 0.00 0.00 0.00 0.00 0.00 0.00 0.00 0.00 0.00 0.00
0.00 0.00 0.00 0.00 0.00 0.00 0.00 0.00 0.00 0.00 0.00 0.00 0.00 0.00 0.00 0.00 0.00 0.00 0.00 0.00 0.00 0.00 0.00 0.00 0.00 0.00 0.00 0.00 0.00 0.00 0.00 0.01 0.00 0.00 0.00 0.02 0.04 0.03 0.01 0.00 0.00 0.00 0.00 0.00 0.00 0.00 0.00 0.00 0.00
0.00 0.00 0.00 0.00 0.00 0.00 0.00 0.00 0.00 0.00 0.00 0.00 0.00 0.00 0.00 0.00 0.00 0.00 0.00 0.00 0.00 0.00 0.00 0.00 0.00 0.00 0.00 0.00 0.00 0.00 0.00 0.00 0.00 0.00 0.00 0.01 0.02 0.01 0.00 0.00 0.00 0.00 0.00 0.00 0.00 0.00 0.00 0.00 0.00
0.00 0.00 0.00 0.00 0.00 0.00 0.00 0.00 0.00 0.00 0.00 0.00 0.00 0.00 0.00 0.00 0.00 0.00 0.00 0.00 0.00 0.00 0.00 0.00 0.00 0.00 0.00 0.00 0.00 0.00 0.00 0.00 0.00 0.00 0.00 0.00 0.00 0.00 0.00 0.00 0.00 0.00 0.00 0.00 0.00 0.00 0.00 0.00 0.00
0.00 0.00 0.00 0.00 0.00 0.00 0.00 0.00 0.00 0.00 0.00 0.00 0.00 0.00 0.00 0.00 0.00 0.00 0.00 0.00 0.00 0.00 0.00 0.00 0.00 0.00 0.00 0.00 0.00 0.00 0.00 0.00 0.00 0.00 0.00 0.00 0.00 0.00 0.00 0.00 0.00 0.00 0.00 0.00 0.00 0.00 0.00 0.00 0.00
0.00 0.00 0.00 0.00 0.00 0.00 0.00 0.00 0.00 0.00 0.00 0.00 0.00 0.00 0.00 0.00 0.00 0.00 0.00 0.00 0.00 0.00 0.00 0.00 0.00 0.00 0.00 0.00 0.00 0.00 0.00 0.00 0.00 0.00 0.00 0.00 0.00 0.00 0.00 0.00 0.00 0.00 0.00 0.00 0.00 0.00 0.00 0.00 0.00
0.00 0.00 0.00 0.00 0.00 0.00 0.00 0.00 0.00 0.00 0.00 0.00 0.00 0.00 0.00 0.00 0.00 0.00 0.00 0.00 0.00 0.00 0.00 0.00 0.00 0.00 0.00 0.00 0.00 0.00 0.00 0.00 0.00 0.00 0.00 0.00 0.00 0.00 0.00 0.00 0.00 0.00 0.00 0.00 0.00 0.00 0.00 0.00 0.00
0.00 0.00 0.00 0.00 0.00 0.00 0.00 0.00 0.00 0.00 0.00 0.00 0.00 0.00 0.00 0.00 0.00 0.00 0.00 0.00 0.00 0.00 0.00 0.00 0.00 0.00 0.00 0.00 0.00 0.00 0.00 0.00 0.00 0.00 0.00 0.00 0.00 0.00 0.00 0.00 0.00 0.00 0.00 0.00 0.00 0.00 0.00 0.00 0.00
0.00 0.00 0.00 0.00 0.00 0.00 0.00 0.00 0.00 0.00 0.00 0.00 0.00 0.00 0.00 0.00 0.00 0.00 0.00 0.00 0.00 0.00 0.00 0.00 0.00 0.00 0.00 0.00 0.00 0.00 0.00 0.00 0.00 0.00 0.00 0.00 0.00 0.00 0.00 0.00 0.00 0.00 0.00 0.00 0.00 0.00 0.00 0.00 0.00
0.00 0.00 0.00 0.00 0.00 0.00 0.00 0.00 0.00 0.00 0.00 0.00 0.00 0.00 0.00 0.00 0.00 0.00 0.00 0.00 0.00 0.00 0.00 0.00 0.00 0.00 0.00 0.00 0.00 0.00 0.00 0.00 0.00 0.00 0.00 0.00 0.00 0.00 0.00 0.00 0.00 0.00 0.00 0.00 0.00 0.00 0.00 0.00 0.00
0.00 0.00 0.00 0.00 0.00 0.00 0.00 0.00 0.00 0.00 0.00 0.00 0.00 0.00 0.00 0.00 0.00 0.00 0.00 0.00 0.00 0.00 0.00 0.00 0.00 0.00 0.00 0.00 0.00 0.00 0.00 0.00 0.00 0.00 0.00 0.00 0.00 0.00 0.00 0.00 0.00 0.00 0.00 0.00 0.00 0.00 0.00 0.00 0.00
0.00 0.00 0.00 0.00 0.00 0.00 0.00 0.00 0.00 0.00 0.00 0.00 0.00 0.00 0.00 0.00 0.00 0.00 0.00 0.00 0.00 0.00 0.00 0.00 0.00 0.00 0.00 0.00 0.00 0.00 0.00 0.00 0.00 0.00 0.00 0.00 0.00 0.00 0.00 0.00 0.00 0.00 0.00 0.00 0.00 0.00 0.00 0.00 0.00
0.00 0.00 0.00 0.01 0.00 0.00 0.01 0.00 0.00 0.00 0.00 0.00 0.00 0.00 0.00 0.00 0.00 0.00 0.00 0.00 0.00 0.00 0.00 0.00 0.00 0.00 0.00 0.00 0.00 0.00 0.00 0.00 0.00 0.00 0.00 0.00 0.00 0.00 0.00 0.00 0.00 0.00 0.00 0.00 0.00 0.00 0.00 0.00 0.00
MSLP
1014.80 1013.80 1013.07 1012.16 1011.39 1010.18 1009.16 1009.47 1009.79 1009.52 1009.51 1010.27 1010.38 1010.02 1009.80 1009.43 1009.11 1009.53 1010.47 1010.57 1010.62 1010.56 1011.03 1011.75 1012.02 1012.02 1012.26 1012.46 1012.68 1012.78 1012.88 1012.93 1013.03 1013.11 1013.26 1013.54 1013.63 1013.84 1013.97 1014.19 1014.53 1014.62 1014.86 1015.10 1015.32 1015.57 1015.86 1016.07 1016.21
1014.74 1013.90 1012.96 1011.69 1011.07 1009.59 1008.74 1009.79 1010.11 1010.25 1010.76 1010.94 1010.39 1010.01 1009.50 1009.04 1009.65 1009.82 1010.16 1011.00 1010.82 1010.79 1010.95 1011.48 1012.03 1012.14 1012.31 1012.58 1012.76 1012.89 1013.05 1013.14 1013.22 1013.32 1013.44 1013.58 1013.84 1014.03 1014.07 1014.27 1014.53 1014.76 1015.01 1015.21 1015.53 1015.85 1016.18 1016.34 1016.46
1014.86 1014.06 1012.42 1011.57 1010.71 1010.19 1010.12 1010.95 1011.16 1011.38 1011.20 1011.22 1010.70 1010.55 1010.04 1009.83 1010.30 1010.66 1011.17 1011.33 1011.07 1010.89 1011.16 1011.61 1012.24 1012.20 1012.38 1012.55 1012.85 1012.95 1013.12 1013.29 1013.38 1013.47 1013.54 1013.67 1014.00 1014.20 1014.39 1014.45 1014.67 1014.97 1015.24 1015.57 1015.92 1016.27 1016.46 1016.59 1016.68
1014.11 1013.38 1012.89 1012.04 1010.89 1010.99 1011.61 1011.45 1011.95 1011.78 1011.42 1011.34 1011.26 1010.56 1010.16 1011.25 1011.34 1011.37 1011.43 1011.40 1011.34 1011.20 1011.45 1012.37 1012.45 1012.55 1012.65 1012.81 1012.92 1013.03 1013.21 1013.39 1013.50 1013.50 1013.66 1013.83 1014.10 1014.35 1014.72 1014.80 1014.99 1015.33 1015.64 1015.98 1016.38 1016.62 1016.80 1016.91 1016.95
1014.20 1013.17 1012.28 1011.99 1011.62 1011.92 1012.23 1012.43 1012.52 1012.35 1011.87 1011.47 1011.74 1010.95 1010.56 1011.16 1011.87 1011.81 1011.79 1011.86 1011.65 1011.69 1011.65 1012.16 1012.47 1012.38 1012.84 1013.00 1013.06 1013.23 1013.31 1013.49 1013.60 1013.64 1013.96 1014.14 1014.39 1014.72 1014.96 1015.19 1015.48 1015.76 1016.10 1016.35 1016.58 1016.88 1017.11 1017.33 1017.35
1013.58 1013.45 1012.41 1011.88 1011.70 1012.27 1012.79 1013.24 1013.16 1012.62 1012.27 1011.96 1012.09 1011.69 1011.02 1011.42 1012.24 1012.35 1012.69 1012.24 1011.99 1011.85 1011.84 1011.90 1012.48 1012.62 1012.76 1013.15 1013.21 1013.31 1013.46 1013.61 1013.70 1013.79 1014.18 1014.47 1014.71 1015.07 1015.24 1015.48 1015.90 1016.12 1016.46 1016.69 1016.94 1017.11 1017.38 1017.60 1017.78
1014.06 1013.49 1012.65 1012.77 1012.60 1012.87 1013.38 1014.03 1013.56 1013.44 1012.76 1012.64 1012.95 1012.01 1011.22 1011.96 1012.70 1012.65 1012.78 1012.59 1012.16 1011.98 1012.11 1012.06 1012.06 1012.33 1012.92 1013.10 1013.27 1013.39 1013.57 1013.68 1013.96 1014.08 1014.38 1014.74 1015.05 1015.23 1015.69 1015.86 1016.12 1016.43 1016.77 1017.11 1017.36 1017.59 1017.72 1017.94 1018.21
1014.72 1014.10 1013.51 1013.26 1013.11 1013.36 1014.01 1014.38 1014.61 1014.21 1013.69 1013.52 1013.21 1012.15 1012.12 1012.79 1012.97 1012.74 1012.69 1012.70 1012.36 1012.60 1012.48 1012.22 1012.40 1012.48 1012.66 1012.80 1013.26 1013.47 1013.62 1013.87 1014.07 1014.32 1014.63 1014.96 1015.34 1015.64 1016.14 1016.43 1016.59 1016.76 1017.18 1017.52 1017.80 1018.03 1018.29 1018.48 1018.69
1015.61 1014.35 1013.58 1014.03 1014.29 1014.08 1014.68 1014.71 1014.44 1014.48 1014.22 1013.75 1013.48 1013.32 1013.20 1013.29 1013.20 1013.06 1012.37 1012.27 1012.41 1012.70 1012.92 1012.59 1012.63 1012.82 1013.08 1013.39 1013.94 1014.13 1014.13 1014.32 1014.12 1014.56 1014.80 1015.25 1015.38 1015.83 1016.24 1016.74 1017.10 1017.29 1017.67 1018.06 1018.32 1018.50 1018.75 1018.89 1019.04
1015.52 1014.56 1014.55 1015.25 1015.19 1015.13 1015.09 1015.03 1014.97 1014.86 1014.15 1013.71 1013.45 1013.44 1013.36 1013.48 1013.61 1013.46 1013.23 1013.37 1013.03 1013.28 1013.21 1013.00 1012.95 1013.50 1013.73 1014.13 1014.43 1014.97 1015.10 1015.28 1014.90 1014.99 1014.98 1015.09 1015.48 1015.95 1016.60 1017.19 1017.56 1017.91 1018.23 1018.59 1018.88 1019.03 1019.00 1018.85 1018.82
1016.13 1015.11 1015.74 1015.58 1015.87 1016.10 1015.85 1015.51 1015.26 1014.94 1014.51 1014.36 1014.85 1014.60 1014.44 1014.12 1014.02 1013.90 1014.05 1014.31 1014.39 1014.26 1013.52 1013.39 1013.64 1013.74 1014.13 1014.15 1013.99 1015.05 1015.45 1015.83 1015.40 1014.04 1014.50 1015.18 1015.96 1016.63 1017.19 1017.62 1017.94 1018.23 1018.40 1018.56 1018.85 1018.90 1018.96 1019.13 1019.16
1016.59 1016.59 1016.49 1016.36 1016.63 1016.75 1016.32 1015.86 1015.60 1015.11 1014.79 1015.54 1015.34 1015.27 1015.03 1014.80 1014.67 1015.10 1015.26 1015.35 1015.18 1014.86 1014.54 1013.83 1013.96 1014.03 1014.10 1014.23 1014.33 1014.63 1015.06 1015.77 1016.45 1016.63 1015.54 1015.40 1016.34 1016.93 1017.35 1017.48 1017.95 1018.27 1018.37 1018.66 1018.84 1019.23 1019.45 1019.65 1019.81
1016.95 1016.42 1016.75 1016.82 1016.91 1016.90 1016.72 1016.29 1015.86 1015.27 1015.27 1015.91 1015.61 1015.67 1015.62 1015.81 1015.85 1015.89 1016.01 1015.98 1016.06 1015.70 1015.34 1014.73 1014.28 1014.32 1014.13 1014.34 1014.78 1014.94 1015.08 1015.72 1016.34 1015.13 1015.92 1016.18 1016.96 1017.55 1017.73 1017.94 1018.10 1018.32 1018.52 1018.80 1019.09 1019.44 1019.72 1020.00 1020.22
1017.64 1017.50 1016.85 1016.65 1016.68 1016.74 1016.86 1016.21 1016.33 1015.41 1016.20 1016.09 1016.01 1015.84 1015.96 1016.05 1016.42 1016.41 1016.40 1016.47 1016.40 1016.39 1015.89 1015.29 1014.52 1014.02 1014.17 1014.39 1014.55 1015.15 1015.47 1015.64 1015.31 1016.08 1016.61 1017.11 1017.55 1018.29 1018.63 1018.20 1018.29 1018.47 1018.71 1018.94 1019.22 1019.47 1019.83 1020.20 1020.55
1018.08 1017.47 1016.71 1016.47 1016.55 1016.66 1017.04 1015.94 1015.68 1016.33 1016.56 1016.10 1016.16 1016.24 1016.37 1016.42 1016.66 1016.96 1017.15 1017.03 1017.08 1016.87 1016.37 1015.63 1014.91 1014.18 1014.10 1014.35 1014.40 1014.73 1015.33 1015.59 1016.07 1016.66 1016.99 1017.38 1017.88 1018.66 1019.14 1019.13 1018.57 1018.81 1019.13 1019.38 1019.68 1019.82 1020.07 1020.36 1020.84
1018.09 1017.43 1016.03 1015.93 1016.77 1016.75 1017.03 1015.20 1015.51 1016.70 1016.70 1016.31 1016.42 1016.55 1016.72 1016.85 1017.02 1017.34 1017.79 1017.56 1017.53 1017.10 1016.66 1015.94 1015.13 1014.29 1014.18 1014.42 1014.43 1014.90 1015.17 1015.95 1016.69 1017.02 1016.97 1017.45 1017.89 1018.82 1019.30 1019.69 1019.35 1019.37 1019.48 1019.56 1019.82 1020.01 1020.33 1020.57 1020.88
1017.67 1016.47 1015.81 1015.74 1016.68 1016.91 1016.86 1015.37 1015.52 1016.58 1016.86 1016.62 1016.70 1016.95 1017.25 1017.28 1017.53 1017.77 1018.05 1017.95 1017.77 1017.31 1016.79 1016.11 1015.43 1014.55 1014.43 1014.68 1014.88 1015.22 1015.60 1015.94 1016.55 1016.64 1017.46 1017.70 1018.16 1018.40 1019.37 1019.74 1019.87 1019.49 1019.69 1019.96 1020.04 1020.26 1020.55 1020.85 1021.32
1016.76 1016.74 1016.34 1016.43 1016.67 1016.98 1016.55 1015.66 1015.36 1015.72 1017.14 1016.95 1017.19 1017.48 1017.62 1018.00 1018.18 1018.45 1018.35 1018.40 1018.16 1017.74 1016.98 1016.41 1015.72 1015.34 1014.97 1015.12 1015.37 1015.56 1015.90 1016.22 1016.33 1016.86 1017.26 1017.64 1018.15 1019.22 1019.68 1019.80 1020.05 1019.94 1019.58 1020.49 1020.58 1020.75 1020.84 1021.34 1021.76
1018.31 1017.79 1017.09 1016.65 1016.89 1017.46 1016.39 1015.44 1015.16 1015.38 1016.77 1017.02 1017.48 1017.94 1018.20 1018.44 1018.69 1018.87 1018.91 1018.77 1018.60 1018.22 1017.68 1017.17 1016.57 1016.24 1015.72 1015.53 1015.80 1015.94 1016.26 1016.48 1016.84 1017.02 1017.43 1017.81 1018.38 1019.35 1019.56 1019.68 1020.08 1020.50 1020.51 1020.65 1020.89 1021.31 1021.24 1021.81 1022.23
1018.91 1018.21 1017.42 1017.03 1017.27 1017.83 1016.49 1015.22 1014.94 1014.91 1016.23 1017.24 1017.95 1018.47 1018.90 1019.10 1019.11 1019.31 1019.42 1019.26 1019.07 1018.90 1018.65 1018.15 1017.85 1017.32 1016.67 1016.18 1016.23 1016.22 1016.51 1016.83 1017.13 1017.35 1017.80 1018.11 1018.49 1019.02 1019.66 1019.88 1020.67 1020.70 1020.34 1021.13 1021.59 1021.37 1021.69 1021.97 1021.98
1019.39 1018.87 1018.34 1017.99 1017.92 1017.59 1017.01 1015.03 1013.79 1014.11 1016.22 1017.73 1018.58 1019.11 1019.52 1019.75 1019.82 1019.88 1019.74 1019.77 1019.70 1019.43 1019.20 1018.81 1018.65 1018.37 1017.78 1017.23 1016.79 1017.03 1017.05 1017.17 1017.70 1017.95 1018.27 1018.53 1018.67 1019.06 1019.61 1020.01 1020.51 1020.97 1020.94 1021.39 1021.50 1021.38 1021.70 1022.02 1022.18
1019.59 1019.05 1019.08 1019.05 1018.89 1017.73 1017.80 1015.35 1014.12 1014.23 1016.23 1017.53 1018.45 1019.03 1019.71 1020.08 1020.27 1020.42 1020.40 1020.22 1020.34 1020.12 1019.90 1019.44 1019.17 1018.91 1018.59 1018.32 1017.80 1017.42 1017.38 1017.49 1017.82 1018.08 1018.40 1018.72 1018.96 1019.42 1019.82 1020.22 1020.63 1020.97 1021.02 1021.49 1021.37 1021.29 1021.30 1021.20 1021.59
1019.82 1019.92 1019.73 1019.66 1019.31 1018.51 1017.45 1017.27 1014.18 1014.78 1015.67 1016.85 1018.13 1019.19 1020.00 1020.56 1020.70 1020.77 1020.93 1020.77 1020.79 1020.78 1020.42 1020.09 1019.91 1019.54 1019.35 1019.18 1018.95 1018.59 1018.31 1018.22 1018.55 1018.58 1018.83 1019.21 1019.53 1019.88 1020.22 1020.41 1020.66 1020.94 1021.36 1021.49 1021.56 1021.59 1021.62 1021.16 1021.07
1020.89 1020.72 1020.41 1020.27 1019.97 1018.69 1017.28 1016.73 1014.79 1014.76 1015.78 1016.15 1018.00 1019.36 1020.21 1020.76 1021.09 1021.12 1021.22 1021.28 1021.22 1021.24 1021.03 1020.79 1020.39 1020.23 1019.96 1019.59 1019.59 1019.56 1019.52 1019.24 1019.00 1019.29 1019.47 1019.66 1019.82 1020.13 1020.35 1020.46 1020.63 1020.91 1021.40 1021.71 1021.98 1022.06 1022.18 1021.82 1021.23
1021.41 1021.12 1020.64 1020.22 1020.19 1018.41 1017.89 1017.16 1015.74 1015.99 1016.74 1017.11 1018.30 1019.52 1020.40 1020.89 1021.26 1021.43 1021.56 1021.57 1021.63 1021.55 1021.56 1021.32 1021.08 1020.88 1020.69 1020.32 1020.19 1020.19 1020.05 1019.90 1019.94 1019.87 1019.74 1019.88 1020.12 1020.30 1020.46 1020.66 1020.80 1020.92 1021.27 1021.65 1021.94 1022.10 1022.19 1022.20 1022.10
1021.21 1021.55 1021.31 1020.28 1019.68 1018.87 1018.83 1017.64 1016.29 1017.72 1018.03 1018.16 1018.89 1019.88 1020.60 1020.96 1021.39 1021.68 1021.74 1021.77 1021.88 1021.86 1021.91 1021.89 1021.75 1021.55 1021.38 1021.14 1021.05 1020.84 1020.47 1020.40 1020.33 1020.25 1020.20 1020.33 1020.35 1020.29 1020.23 1020.73 1020.99 1021.28 1021.36 1021.55 1021.87 1022.08 1022.16 1022.19 1022.21
1021.59 1021.74 1021.96 1021.73 1021.22 1020.83 1018.63 1017.34 1018.15 1018.38 1018.93 1019.41 1019.95 1020.43 1020.57 1020.98 1021.38 1021.57 1021.72 1021.77 1021.99 1022.19 1022.17 1022.20 1022.19 1022.18 1022.18 1021.96 1021.74 1021.36 1021.05 1020.96 1020.96 1020.89 1020.68 1020.59 1020.45 1020.39 1020.28 1020.49 1020.84 1021.27 1021.54 1021.59 1021.93 1022.08 1022.14 1022.30 1022.32
1022.36 1022.47 1022.47 1022.51 1021.42 1019.84 1018.11 1017.31 1017.22 1018.13 1018.89 1019.69 1020.05 1020.17 1020.46 1020.94 1021.45 1021.66 1021.85 1021.98 1022.06 1022.32 1022.44 1022.39 1022.40 1022.45 1022.50 1022.43 1022.25 1022.09 1021.96 1021.75 1021.53 1021.36 1021.28 1021.20 1020.92 1020.56 1020.51 1020.64 1020.64 1020.68 1021.19 1021.53 1021.90 1022.02 1022.35 1022.40 1022.43
1022.68 1022.80 1022.99 1022.68 1021.92 1020.36 1018.77 1017.10 1017.70 1018.03 1018.37 1019.13 1019.57 1019.82 1020.26 1020.93 1021.44 1021.75 1021.99 1022.05 1022.16 1022.35 1022.49 1022.59 1022.60 1022.65 1022.71 1022.76 1022.70 1022.66 1022.64 1022.64 1022.42 1022.15 1021.99 1021.78 1021.40 1021.13 1020.91 1020.76 1020.82 1020.86 1021.03 1021.37 1021.77 1021.92 1022.22 1022.42 1022.50
1023.27 1022.96 1023.00 1022.86 1021.59 1020.55 1019.82 1017.52 1018.30 1018.62 1018.95 1019.08 1019.36 1019.68 1020.13 1020.85 1021.43 1021.80 1022.01 1022.13 1022.15 1022.26 1022.38 1022.55 1022.76 1022.84 1023.02 1023.02 1022.99 1023.04 1023.15 1023.18 1023.14 1023.11 1022.87 1022.53 1022.29 1022.07 1021.56 1021.10 1020.90 1020.86 1020.94 1021.21 1021.44 1021.74 1021.96 1022.22 1022.45
Thickness
5676 5680 5685 5684 5664 5669 5668 5666 5675 5671 5674 5677 5677 5675 5673 5680 5675 5664 5695 5700 5703 5703 5702 5698 5698 5700 5700 5699 5697 5699 5699 5701 5702 5703 5703 5703 5703 5702 5702 5701 5697 5697 5694 5692 5691 5689 5688 5687 5687
5671 5675 5678 5674 5655 5657 5670 5670 5660 5666 5667 5670 5674 5674 5674 5672 5685 5688 5691 5692 5697 5698 5698 5696 5694 5695 5696 5695 5694 5694 5694 5695 5697 5697 5698 5699 5699 5698 5699 5699 5696 5694 5692 5690 5687 5685 5685 5684 5684
5666 5669 5665 5660 5657 5650 5652 5654 5653 5656 5663 5660 5661 5670 5669 5666 5678 5679 5685 5688 5690 5693 5691 5690 5688 5690 5691 5692 5691 5691 5691 5690 5692 5693 5694 5695 5693 5694 5693 5695 5693 5690 5689 5685 5682 5680 5680 5681 5681
5664 5664 5660 5645 5648 5655 5644 5652 5649 5648 5657 5659 5657 5653 5671 5668 5666 5674 5682 5684 5686 5688 5686 5682 5683 5684 5684 5685 5687 5687 5687 5687 5687 5689 5690 5690 5689 5689 5688 5688 5688 5685 5684 5681 5677 5676 5675 5676 5676
5658 5655 5644 5638 5641 5645 5645 5645 5643 5637 5644 5648 5648 5645 5654 5663 5663 5668 5672 5675 5678 5680 5680 5677 5673 5679 5678 5679 5680 5680 5682 5681 5683 5685 5684 5684 5684 5683 5683 5682 5681 5680 5677 5676 5675 5673 5672 5670 5671
5646 5646 5635 5635 5641 5642 5638 5635 5632 5635 5639 5640 5636 5637 5645 5658 5652 5656 5657 5665 5670 5672 5675 5675 5673 5672 5675 5673 5675 5676 5676 5677 5677 5679 5677 5676 5677 5675 5675 5675 5673 5673 5671 5670 5670 5670 5668 5666 5665
5635 5634 5634 5630 5629 5627 5626 5626 5623 5622 5628 5626 5629 5625 5641 5642 5643 5649 5651 5655 5663 5666 5666 5668 5671 5674 5670 5669 5670 5672 5670 5672 5671 5672 5671 5669 5669 5670 5667 5668 5667 5666 5665 5664 5663 5663 5663 5661 5660
5633 5630 5623 5628 5623 5617 5621 5616 5613 5613 5614 5627 5627 5621 5620 5629 5635 5641 5646 5648 5655 5656 5660 5663 5662 5664 5664 5666 5665 5666 5667 5667 5666 5666 5665 5665 5663 5662 5659 5659 5659 5659 5657 5656 5655 5655 5654 5654 5653
5626 5622 5621 5616 5611 5614 5614 5606 5616 5616 5610 5615 5619 5616 5619 5622 5627 5629 5639 5644 5645 5648 5649 5653 5653 5651 5653 5655 5654 5657 5658 5658 5662 5660 5661 5658 5658 5655 5654 5651 5650 5650 5649 5646 5645 5645 5644 5645 5645
5618 5616 5614 5611 5611 5606 5608 5605 5603 5601 5606 5609 5612 5615 5616 5615 5615 5617 5622 5623 5631 5633 5636 5642 5645 5641 5643 5643 5643 5643 5644 5644 5650 5649 5651 5652 5649 5646 5644 5643 5642 5640 5638 5637 5636 5636 5637 5639 5639
5608 5611 5606 5609 5606 5600 5598 5598 5602 5597 5595 5601 5592 5595 5598 5602 5605 5608 5610 5611 5613 5618 5628 5633 5632 5633 5632 5635 5640 5634 5634 5636 5637 5650 5647 5643 5638 5635 5633 5632 5630 5630 5630 5630 5629 5630 5631 5631 5631
5597 5599 5598 5598 5595 5589 5590 5596 5591 5596 5597 5590 5592 5591 5590 5591 5593 5591 5592 5595 5600 5606 5612 5623 5622 5626 5626 5625 5625 5627 5627 5624 5621 5615 5630 5633 5627 5624 5624 5626 5625 5624 5625 5624 5625 5623 5623 5623 5621
5593 5599 5593 5592 5589 5586 5586 5584 5587 5591 5594 5585 5588 5585 5581 5578 5578 5580 5580 5584 5586 5591 5597 5606 5614 5615 5618 5617 5613 5613 5615 5617 5614 5625 5616 5622 5616 5611 5612 5614 5616 5617 5618 5618 5618 5618 5617 5615 5613
5586 5583 5588 5589 5586 5584 5576 5582 5578 5591 5579 5578 5578 5579 5576 5572 5567 5567 5568 5570 5575 5578 5584 5591 5603 5609 5609 5609 5609 5604 5601 5606 5615 5612 5609 5604 5605 5601 5597 5605 5608 5610 5611 5611 5612 5613 5611 5609 5606
5577 5575 5586 5586 5582 5579 5572 5577 5578 5574 5571 5573 5571 5570 5566 5565 5560 5555 5550 5554 5560 5566 5572 5580 5590 5599 5601 5601 5602 5602 5596 5599 5600 5597 5598 5598 5598 5593 5588 5593 5599 5600 5601 5602 5602 5604 5603 5602 5600
5570 5572 5579 5586 5573 5574 5566 5578 5580 5565 5564 5566 5564 5562 5558 5555 5552 5545 5538 5543 5547 5556 5563 5570 5579 5591 5596 5592 5594 5592 5592 5590 5588 5587 5591 5590 5591 5585 5585 5581 5588 5590 5592 5594 5594 5597 5596 5596 5596
5570 5576 5580 5578 5569 5563 5560 5571 5572 5561 5557 5559 5557 5554 5548 5547 5543 5537 5534 5537 5541 5547 5554 5562 5569 5581 5585 5585 5583 5583 5581 5582 5583 5585 5580 5579 5579 5581 5574 5575 5578 5583 5585 5585 5587 5589 5589 5588 5586
5575 5568 5570 5562 5563 5556 5556 5562 5569 5566 5546 5550 5548 5544 5542 5536 5533 5530 5530 5530 5533 5537 5546 5553 5561 5566 5573 5574 5574 5574 5574 5574 5577 5575 5574 5573 5571 5566 5566 5569 5570 5574 5580 5574 5577 5579 5581 5578 5576
5552 5551 5555 5562 5558 5540 5551 5560 5563 5563 5544 5544 5541 5535 5532 5528 5526 5522 5521 5522 5523 5527 5533 5539 5547 5551 5559 5564 5566 5567 5565 5566 5567 5569 5568 5566 5563 5558 5559 5563 5564 5563 5564 5566 5568 5567 5570 5568 5566
5541 5542 5548 5553 5548 5532 5544 5554 5560 5560 5546 5536 5529 5525 5520 5517 5517 5513 5511 5513 5513 5514 5517 5523 5527 5533 5542 5551 5553 5558 5557 5556 5557 5560 5560 5559 5558 5555 5553 5555 5552 5555 5559 5554 5554 5559 5558 5559 5561
5532 5531 5535 5535 5534 5532 5531 5547 5563 5564 5538 5522 5514 5509 5507 5503 5502 5501 5502 5502 5501 5503 5505 5510 5513 5516 5523 5533 5540 5540 5544 5548 5544 5546 5549 5551 5551 5551 5549 5548 5547 5546 5549 5547 5548 5551 5551 5549 5551
5522 5533 5524 5518 5514 5519 5519 5524 5554 5556 5529 5516 5508 5504 5498 5493 5492 5489 5489 5491 5489 5491 5493 5497 5500 5504 5507 5511 5521 5530 5534 5538 5537 5538 5539 5541 5543 5542 5541 5541 5540 5538 5541 5540 5542 5545 5549 5552 5551
5519 5511 5509 5507 5504 5507 5520 5497 5547 5542 5530 5519 5505 5494 5486 5480 5478 5478 5476 5478 5478 5478 5481 5485 5486 5491 5494 5496 5501 5508 5517 5519 5520 5524 5525 5527 5528 5529 5530 5531 5531 5531 5530 5532 5535 5537 5540 5547 5550
5498 5496 5494 5492 5490 5483 5515 5508 5526 5537 5522 5522 5500 5483 5474 5469 5466 5466 5465 5465 5466 5465 5468 5471 5476 5478 5481 5486 5488 5491 5494 5501 5508 5509 5511 5514 5517 5518 5519 5522 5523 5524 5522 5523 5525 5527 5529 5535 5542
5482 5485 5479 5479 5461 5481 5492 5494 5511 5513 5503 5499 5485 5471 5462 5458 5456 5454 5452 5452 5452 5454 5454 5458 5462 5465 5468 5472 5475 5478 5482 5486 5489 5493 5499 5502 5504 5506 5510 5512 5514 5516 5515 5515 5517 5520 5521 5523 5527
5480 5473 5470 5467 5484 5486 5463 5466 5505 5469 5473 5478 5470 5457 5447 5445 5442 5440 5440 5441 5440 5442 5442 5444 5447 5451 5455 5459 5460 5464 5469 5473 5476 5480 5483 5486 5491 5496 5499 5500 5502 5504 5507 5507 5509 5511 5514 5516 5519
5466 5454 5459 5442 5442 5414 5468 5482 5451 5449 5446 5445 5440 5435 5437 5433 5431 5430 5430 5431 5430 5429 5430 5431 5433 5435 5438 5442 5447 5452 5457 5459 5462 5466 5471 5475 5478 5483 5488 5490 5492 5493 5496 5499 5499 5502 5505 5507 5510
5447 5444 5434 5428 5417 5431 5464 5471 5469 5442 5438 5429 5426 5427 5426 5422 5417 5418 5418 5418 5419 5418 5418 5420 5421 5423 5426 5429 5433 5437 5441 5445 5449 5452 5456 5459 5464 5470 5475 5479 5483 5486 5488 5490 5490 5493 5494 5498 5500
5434 5422 5417 5423 5427 5423 5427 5452 5450 5443 5440 5424 5421 5421 5417 5410 5406 5405 5405 5406 5406 5406 5407 5409 5411 5412 5413 5416 5420 5423 5426 5429 5434 5438 5442 5445 5450 5456 5462 5468 5472 5476 5478 5479 5481 5484 5485 5488 5490
5411 5416 5417 5402 5414 5429 5413 5429 5430 5423 5419 5422 5413 5410 5407 5399 5394 5391 5392 5393 5395 5396 5397 5397 5397 5399 5401 5404 5407 5410 5412 5415 5418 5421 5426 5432 5436 5441 5448 5455 5462 5467 5470 5472 5474 5477 5478 5480 5482